Location: Hac?musa Deresi
(39.1694°N, 32.2508°E)
Time: 15:02:50
(UTC+00:00)

Cosmos 1782 Rocket - Pass Details

Date: 22 April 2026
Orbit: 600 x 624 km, 82.5° (Epoch: 11 May)

Event Time Altitude Azimuth Distance (km) Brightness Sun altitude
Exits shadow 19:21:42 44° 287° (WNW) 834 4.5 -28.0°
Drops below altitude 10° 19:25:41 10° 354° (N) 1,949 6.8 -28.5°
Sets 19:27:59 0° 1° (N) 2,858 7.6 -28.8°
